Total_Precipitation_Accumulation
0.32 0.31 0.27 0.25 0.24 0.24 0.21 0.19 0.16 0.14 0.11 0.09 0.08 0.06 0.05 0.05 0.04 0.02 0.01 0.01 0.01 0.01 0.05 0.09 0.13 0.15 0.20 0.22 0.24 0.25 0.25 0.23 0.21 0.21 0.20 0.21 0.21 0.22 0.23 0.24 0.24 0.26 0.28
0.42 0.38 0.35 0.32 0.29 0.28 0.28 0.24 0.20 0.18 0.15 0.12 0.10 0.09 0.09 0.08 0.07 0.04 0.02 0.02 0.02 0.01 0.04 0.09 0.15 0.21 0.23 0.28 0.32 0.34 0.31 0.28 0.26 0.26 0.25 0.25 0.25 0.25 0.26 0.27 0.26 0.28 0.30
0.58 0.53 0.44 0.39 0.35 0.33 0.32 0.31 0.28 0.25 0.21 0.17 0.13 0.11 0.10 0.09 0.09 0.09 0.07 0.05 0.04 0.03 0.03 0.07 0.15 0.22 0.25 0.28 0.33 0.37 0.39 0.35 0.31 0.29 0.30 0.30 0.30 0.29 0.30 0.31 0.32 0.33 0.34
0.66 0.67 0.59 0.49 0.46 0.44 0.42 0.38 0.34 0.31 0.27 0.25 0.21 0.17 0.13 0.10 0.08 0.08 0.08 0.08 0.07 0.05 0.04 0.05 0.09 0.14 0.20 0.25 0.31 0.41 0.47 0.45 0.38 0.34 0.34 0.36 0.37 0.37 0.38 0.40 0.40 0.40 0.40
0.72 0.72 0.66 0.58 0.57 0.54 0.48 0.46 0.40 0.35 0.30 0.25 0.22 0.20 0.16 0.13 0.11 0.09 0.08 0.07 0.06 0.05 0.05 0.05 0.06 0.07 0.11 0.16 0.26 0.39 0.50 0.52 0.48 0.43 0.41 0.41 0.44 0.46 0.49 0.53 0.53 0.53 0.55
0.78 0.76 0.72 0.67 0.65 0.59 0.52 0.47 0.44 0.40 0.33 0.30 0.28 0.23 0.19 0.16 0.13 0.11 0.10 0.10 0.08 0.07 0.07 0.06 0.06 0.06 0.07 0.11 0.17 0.26 0.38 0.47 0.50 0.49 0.48 0.49 0.51 0.55 0.60 0.65 0.68 0.70 0.73
0.88 0.86 0.83 0.79 0.76 0.66 0.56 0.51 0.49 0.47 0.42 0.38 0.34 0.26 0.19 0.17 0.15 0.13 0.12 0.11 0.11 0.11 0.10 0.10 0.09 0.10 0.10 0.11 0.13 0.17 0.24 0.33 0.44 0.51 0.53 0.54 0.58 0.62 0.69 0.76 0.82 0.84 0.89
1.07 0.95 0.91 0.91 0.89 0.81 0.71 0.64 0.60 0.55 0.50 0.52 0.52 0.47 0.33 0.21 0.15 0.14 0.13 0.13 0.13 0.14 0.14 0.15 0.14 0.14 0.14 0.15 0.14 0.15 0.16 0.23 0.36 0.54 0.62 0.64 0.67 0.71 0.78 0.87 0.95 1.02 1.10
1.23 1.11 1.01 1.04 1.04 0.99 0.91 0.88 0.85 0.78 0.70 0.66 0.66 0.70 0.56 0.35 0.23 0.17 0.17 0.17 0.18 0.17 0.17 0.18 0.17 0.16 0.16 0.16 0.16 0.17 0.20 0.24 0.34 0.52 0.70 0.80 0.84 0.87 0.93 1.02 1.11 1.22 1.27
1.32 1.29 1.21 1.15 1.13 1.10 1.04 1.06 1.10 1.06 1.00 0.85 0.74 0.69 0.64 0.54 0.47 0.32 0.21 0.21 0.22 0.21 0.20 0.19 0.19 0.19 0.18 0.19 0.21 0.25 0.30 0.36 0.45 0.61 0.82 0.97 1.07 1.19 1.30 1.38 1.46 1.54 1.50
1.32 1.30 1.26 1.20 1.13 1.11 1.12 1.11 1.10 1.15 1.14 1.05 0.91 0.84 0.79 0.67 0.56 0.52 0.34 0.24 0.24 0.25 0.24 0.23 0.21 0.19 0.20 0.22 0.26 0.33 0.43 0.51 0.62 0.77 1.02 1.26 1.39 1.54 1.72 1.84 1.89 1.92 1.86
1.27 1.24 1.22 1.18 1.12 1.06 1.06 1.12 1.16 1.18 1.19 1.14 1.05 0.94 0.88 0.82 0.70 0.66 0.58 0.41 0.36 0.32 0.28 0.26 0.25 0.25 0.26 0.29 0.36 0.47 0.55 0.61 0.72 0.90 1.21 1.45 1.59 1.72 1.81 1.92 2.00 2.00 1.99
1.15 1.06 1.06 1.08 1.09 1.05 1.06 1.10 1.14 1.13 1.15 1.12 1.06 0.97 0.91 0.82 0.77 0.80 0.80 0.66 0.54 0.42 0.37 0.35 0.36 0.40 0.44 0.49 0.53 0.64 0.65 0.70 0.78 0.90 1.14 1.38 1.47 1.52 1.61 1.77 1.96 2.04 2.05
1.21 1.15 1.12 1.11 1.13 1.13 1.09 1.08 1.06 1.04 1.04 1.05 1.02 0.98 0.93 0.86 0.84 0.86 0.91 0.97 0.92 0.73 0.62 0.57 0.56 0.61 0.65 0.68 0.73 0.78 0.70 0.77 0.77 0.81 0.95 1.12 1.17 1.17 1.19 1.31 1.51 1.66 1.78
1.15 1.12 1.16 1.16 1.14 1.16 1.14 1.10 1.06 0.98 0.94 0.93 0.93 0.94 0.91 0.85 0.86 0.92 1.00 1.13 1.28 1.20 0.94 0.76 0.75 0.77 0.79 0.79 0.82 0.73 0.63 0.73 0.75 0.75 0.80 0.87 0.90 0.88 0.88 0.98 1.09 1.16 1.26
1.02 1.00 1.04 1.06 1.05 1.05 1.07 1.06 1.02 0.97 0.92 0.87 0.86 0.89 0.89 0.86 0.87 0.92 0.99 1.08 1.21 1.34 1.22 0.90 0.75 0.71 0.71 0.69 0.74 0.63 0.57 0.67 0.65 0.64 0.67 0.70 0.74 0.73 0.74 0.82 0.90 0.94 0.93
0.95 0.95 0.94 0.93 0.95 0.94 0.94 0.96 0.95 0.93 0.91 0.84 0.79 0.80 0.82 0.81 0.84 0.87 0.90 0.96 1.03 1.12 1.14 0.91 0.73 0.67 0.66 0.62 0.60 0.54 0.49 0.48 0.48 0.57 0.58 0.59 0.60 0.61 0.66 0.70 0.75 0.80 0.83
0.76 0.81 0.81 0.79 0.77 0.77 0.79 0.81 0.82 0.81 0.83 0.81 0.75 0.72 0.71 0.72 0.76 0.77 0.82 0.85 0.87 0.88 0.91 0.84 0.67 0.59 0.55 0.50 0.46 0.43 0.40 0.38 0.36 0.44 0.45 0.46 0.48 0.49 0.50 0.53 0.60 0.65 0.69
0.59 0.63 0.66 0.66 0.65 0.62 0.61 0.64 0.67 0.67 0.66 0.69 0.70 0.70 0.69 0.72 0.77 0.79 0.79 0.76 0.73 0.72 0.73 0.71 0.58 0.48 0.44 0.42 0.42 0.38 0.32 0.30 0.28 0.31 0.33 0.34 0.35 0.38 0.42 0.45 0.46 0.49 0.50
0.50 0.53 0.56 0.58 0.59 0.59 0.60 0.61 0.63 0.67 0.69 0.70 0.72 0.78 0.80 0.79 0.78 0.76 0.77 0.75 0.73 0.73 0.69 0.69 0.65 0.56 0.49 0.42 0.41 0.39 0.35 0.31 0.28 0.26 0.31 0.34 0.36 0.38 0.38 0.37 0.34 0.33 0.33
0.49 0.50 0.55 0.57 0.60 0.63 0.68 0.72 0.75 0.82 0.90 0.94 0.94 0.92 0.90 0.92 0.88 0.82 0.77 0.75 0.76 0.79 0.81 0.81 0.75 0.61 0.49 0.42 0.39 0.35 0.37 0.37 0.37 0.35 0.34 0.32 0.32 0.31 0.30 0.30 0.30 0.30 0.31
0.54 0.53 0.57 0.61 0.66 0.72 0.89 0.90 0.84 0.86 0.94 0.95 0.92 0.86 0.82 0.82 0.79 0.79 0.76 0.74 0.77 0.86 0.95 0.95 0.82 0.62 0.43 0.35 0.35 0.41 0.49 0.60 0.55 0.38 0.36 0.35 0.31 0.31 0.28 0.27 0.30 0.32 0.35
0.66 0.67 0.71 0.77 0.83 0.88 0.94 0.87 0.85 0.78 0.79 0.77 0.74 0.72 0.69 0.66 0.68 0.62 0.67 0.76 0.79 0.85 0.83 0.74 0.65 0.52 0.45 0.41 0.51 0.64 0.63 0.62 0.47 0.32 0.38 0.42 0.36 0.34 0.31 0.32 0.37 0.37 0.38
0.84 0.89 0.93 0.96 0.97 0.98 0.92 0.78 0.71 0.64 0.64 0.63 0.62 0.62 0.60 0.58 0.58 0.61 0.67 0.75 0.67 0.61 0.59 0.54 0.51 0.49 0.48 0.49 0.60 0.73 0.70 0.65 0.51 0.42 0.43 0.52 0.41 0.37 0.32 0.32 0.36 0.37 0.39
1.01 1.00 0.97 0.91 0.85 0.81 0.75 0.63 0.56 0.49 0.49 0.50 0.48 0.51 0.55 0.53 0.58 0.72 0.77 0.73 0.58 0.50 0.52 0.56 0.58 0.55 0.56 0.56 0.58 0.73 0.85 0.89 0.74 0.50 0.42 0.47 0.42 0.39 0.37 0.34 0.33 0.37 0.38
0.92 0.86 0.78 0.72 0.65 0.57 0.56 0.50 0.46 0.40 0.39 0.38 0.38 0.39 0.45 0.48 0.61 0.73 0.65 0.60 0.54 0.49 0.51 0.51 0.50 0.49 0.47 0.47 0.54 0.63 0.92 1.20 0.97 0.68 0.41 0.53 0.53 0.56 0.68 0.40 0.34 0.37 0.40